Home   Weather   Le Mans   Past weeks

Flag for France Past Weather in Le Mans, Pays de la Loire, France — Yesterday and Last 2 Weeks

Now
46 °F

Clear.


Feels Like: 42 °F
Forecast: 35 / 48 °F
Wind: 8 mph from Southeast

Location: Tours Airport

Current Time: Dec 7, 2016 at 7:41:26 pm

Latest Report: Dec 7, 2016 at 7:00 pm


Visibility: 10 mi

Pressure: 30.45 "Hg

Humidity: 71%

Dew Point: 37 °F

Location of Le MansLocation

Past Weather in Le Mans — Graph

°F

Le Mans Temperature Yesterday

Maximum temperature yesterday: 57 °F (at 3:30 pm)
Minimum temperature yesterday: 37 °F (at 8:00 am)
Average temperature yesterday: 45 °F

High & Low Weather Summary for the Past Weeks

 TemperatureHumidityPressure
High59 °F (Dec 5, 2:30 pm)100% (Nov 23, 9:30 am)30.54 "Hg (Nov 23, 9:30 am)
Low30 °F (Nov 29, 4:00 am)53% (Nov 28, 4:00 pm)29.77 "Hg (Nov 23, 3:00 pm)
Average42 °F83%30.15 "Hg
* Reported Nov 22 6:00 pm — Dec 7 6:00 pm, Le Mans, Weather by CustomWeather, © 2016

Note: Actual official high and low records may vary slightly from our data, if they occured in-between our weather recording intervals... More about our weather records

Advertising

Le Mans Weather History for the Previous 24 Hours

Scroll right to see more
 ConditionsComfort  
Time TempWeatherWind HumidityBarometerVisibility
6:00 pm
Wed, Dec 7
46 °FClear.3 mph76%30.45 "Hg10 mi
5:30 pm46 °FClear.6 mph76%30.42 "Hg10 mi
5:00 pm50 °FSunny.3 mph76%30.45 "Hg10 mi
4:30 pm50 °FSunny.3 mph71%30.42 "Hg10 mi
4:00 pm54 °FSunny.5 mph63%30.42 "Hg10 mi
3:30 pm55 °FSunny.6 mph55%30.42 "Hg10 mi
3:00 pm55 °FSunny.5 mph55%30.42 "Hg10 mi
2:30 pm55 °FPassing clouds.5 mph55%30.42 "HgN/A
2:00 pm54 °FPassing clouds.5 mph58%30.42 "HgN/A
1:30 pm54 °FSunny.7 mph58%30.42 "Hg10 mi
1:00 pm52 °FSunny.2 mph62%30.45 "Hg10 mi
12:30 pm50 °FSunny.5 mph67%30.45 "Hg10 mi
12:00 pm50 °FPassing clouds.3 mph67%30.45 "HgN/A
11:30 am48 °FSunny.6 mph71%30.45 "Hg10 mi
11:00 am43 °FClear.6 mph87%30.45 "Hg4 mi
10:30 am41 °FFog.5 mph87%30.45 "Hg3 mi
10:00 am39 °FFog.3 mph93%30.45 "Hg2 mi
9:30 am37 °FFog.6 mph100%30.45 "Hg2 mi
9:00 am37 °FFog.3 mph93%30.45 "Hg2 mi
8:30 am37 °FFog.5 mph93%30.42 "Hg2 mi
8:00 am37 °FFog.6 mph93%30.42 "Hg3 mi
7:30 am37 °FFog.3 mph100%30.42 "Hg3 mi
7:00 am37 °FFog.3 mph93%30.42 "Hg3 mi
6:30 am37 °FClear.3 mph93%30.42 "Hg4 mi
6:00 am39 °FFog.No wind93%30.42 "Hg3 mi
5:30 am39 °FFog.5 mph93%30.42 "Hg3 mi
5:00 am37 °FFog.6 mph93%30.42 "Hg2 mi
4:30 am37 °FLight fog.3 mph93%30.42 "Hg2 mi
4:00 am37 °FFog.6 mph100%30.42 "Hg2 mi
3:30 am37 °FFog.3 mph100%30.42 "Hg2 mi
3:00 am39 °FFog.6 mph93%30.42 "Hg2 mi
2:30 am39 °FFog.6 mph93%30.42 "Hg3 mi
2:00 am39 °FFog.3 mph93%30.42 "Hg3 mi
1:30 am39 °FFog.5 mph93%30.42 "Hg2 mi
1:00 am41 °FFog.2 mph93%30.42 "Hg2 mi
12:30 am41 °FFog.6 mph93%30.42 "Hg3 mi
12:00 am41 °FFog.6 mph93%30.42 "Hg3 mi
11:30 pm
Tue, Dec 6
41 °FFog.3 mph93%30.42 "Hg3 mi
11:00 pm41 °FClear.6 mph93%30.42 "Hg4 mi
10:30 pm43 °FFog.6 mph93%30.42 "Hg3 mi
10:00 pm43 °FClear.6 mph87%30.42 "Hg4 mi
9:30 pm43 °FClear.2 mph93%30.42 "Hg4 mi
9:00 pm45 °FClear.2 mph87%30.42 "Hg4 mi
8:30 pm45 °FClear.6 mph87%30.42 "Hg5 mi
8:00 pm45 °FClear.2 mph87%30.42 "Hg10 mi
7:00 pm46 °FClear.2 mph87%30.39 "Hg5 mi
Weather by CustomWeather, © 2016

See weather overviewHow to use our weather pages